Location: R�o Medio
(42.4667°N, 3.0167°W)
Time: 17:52:14
(UTC+00:00)

Cosmos 1869 Rocket - Pass Details

Date: 27 February 2020
Orbit: 604 x 634 km, 82.5° (Epoch: 01 April)

Event Time Altitude Azimuth Distance (km) Brightness Sun altitude
Rises 19:06:03 0° 176° (S) 2,888 7.0 -13.2°
Reaches altitude 10° 19:08:18 10° 172° (S) 1,981 6.1 -13.6°
Maximum altitude 19:12:36 57° 95° (E) 728 3.6 -14.4°
Drops below altitude 10° 19:16:54 10° 16° (NNE) 1,979 6.0 -15.2°
Sets 19:19:08 0° 13° (NNE) 2,884 6.9 -15.6°
